GW4017 Weather Reports


time (UTC)temp
C
wind
direction
speed
KPH
gust
KPH
rain 1hr
cm
rain 24hr
cm
rain mn
cm
humidity
%
barometer
mb
20260906231547 16 0 0.0 3.2 0.00 0.61 0.25 83 1015.4
20260906230043 16 0 0.0 3.2 0.00 0.61 0.25 81 1015.5
20260906224551 16 0 0.0 1.6 0.00 0.61 0.25 81 1015.7
20260906223049 16 0 0.0 1.6 0.00 0.61 0.25 83 1015.7
20260906221549 16 0 0.0 0.0 0.00 0.61 0.25 82 1016.1
20260906220047 16 0 0.0 0.0 0.00 0.61 0.25 82 1016.2
20260906214552 16 0 0.0 0.0 0.00 0.61 0.25 81 1016.3
20260906213054 16 0 0.0 0.0 0.00 0.61 0.25 81 1016.3
20260906211549 15 0 0.0 0.0 0.00 0.61 0.25 84 1016.3
20260906210043 15 102 0.0 1.6 0.00 0.61 0.25 84 1016.3
20260906204559 15 0 1.6 8.0 0.00 0.61 0.25 85 1016.3
20260906203057 15 111 0.0 4.8 0.00 0.61 0.25 86 1016.3
20260906201548 15 97 0.0 11.3 0.00 0.61 0.25 86 1016.4
20260906200043 15 110 1.6 6.4 0.00 0.61 0.25 86 1016.4
20260906194553 15 0 0.0 1.6 0.00 0.61 0.25 86 1016.7
20260906193057 15 0 0.0 1.6 0.00 0.61 0.25 87 1016.6
20260906191547 15 0 0.0 0.0 0.00 0.61 0.25 87 1016.8
20260906190050 15 0 0.0 1.6 0.00 0.61 0.25 86 1017.0
20260906184549 15 0 0.0 0.0 0.00 0.61 0.25 86 1017.1
20260906183049 15 0 0.0 0.0 0.00 0.61 0.25 86 1017.2
20260906181549 15 0 0.0 4.8 0.00 0.61 0.25 85 1017.1
20260906180104 15 29 0.0 11.3 0.00 0.61 0.25 86 1016.8
20260906174548 15 0 0.0 12.9 0.00 0.61 0.25 88 1017.2
20260906173048 13 19 9.7 17.7 0.00 0.61 0.25 87 1017.7
20260906171558 13 18 12.9 20.9 0.00 0.61 0.25 88 1017.8
20260906164549 12 47 3.2 14.5 0.00 0.61 0.25 91 1017.5
20260906163056 12 353 11.3 14.5 0.00 0.61 0.25 90 1018.7
20260906161550 12 338 4.8 8.0 0.00 0.61 0.25 91 1018.8
20260906160055 12 326 6.4 11.3 0.00 0.61 0.25 92 1019.1
20260906154548 11 332 8.0 11.3 0.05 0.61 0.25 92 1019.1
20260906153052 11 335 8.0 12.9 0.08 0.61 0.25 92 1019.3
20260906151549 11 314 9.7 12.9 0.10 0.61 0.25 92 1019.4
20260906144553 11 326 11.3 16.1 0.18 0.58 0.20 91 1019.6
20260906143055 11 307 11.3 19.3 0.18 0.56 0.18 92 1019.7
20260906141549 11 330 14.5 24.1 0.15 0.53 0.15 92 1019.7
20260906140055 12 295 16.1 25.7 0.10 0.48 0.10 91 1019.7
20260906134543 12 283 9.7 11.3 0.03 0.51 0.03 91 1019.4
20260906133112 12 311 6.4 9.7 0.00 0.48 0.00 90 1019.2
20260906131550 12 302 6.4 9.7 0.00 0.48 0.00 89 1019.3
20260906130104 13 264 6.4 11.3 0.00 0.48 0.00 88 1019.4
20260906124544 13 331 9.7 16.1 0.00 0.58 0.00 87 1019.4
20260906123051 13 324 9.7 16.1 0.00 0.58 0.00 87 1019.4
20260906121547 13 9 6.4 14.5 0.00 0.58 0.00 85 1019.4
20260906120043 13 314 11.3 17.7 0.00 0.58 0.00 87 1019.1
20260906114551 13 328 9.7 16.1 0.00 0.61 0.00 86 1018.8
20260906113048 13 62 4.8 9.7 0.00 0.61 0.00 86 1018.4
20260906111600 13 0 0.0 1.6 0.00 0.61 0.00 87 1018.7
20260906110050 13 0 0.0 11.3 0.00 0.61 0.00 88 1018.6
20260906104551 13 25 6.4 12.9 0.00 0.61 0.00 89 1018.7
20260906103049 13 39 8.0 16.1 0.00 0.61 0.00 89 1018.8
20260906101549 13 32 11.3 20.9 0.00 0.61 0.00 89 1018.9
20260906100055 13 32 9.7 19.3 0.00 0.61 0.00 88 1018.9
20260906094551 13 38 12.9 24.1 0.00 0.61 0.00 87 1019.0
20260906093049 13 34 14.5 22.5 0.00 0.61 0.00 87 1018.9
20260906091548 13 354 12.9 17.7 0.00 0.61 0.00 87 1018.8
20260906090056 13 19 4.8 14.5 0.00 0.61 0.00 88 1018.8
20260906084552 13 4 12.9 24.1 0.00 0.61 0.00 88 1018.6
20260906083051 13 31 12.9 22.5 0.00 0.61 0.00 88 1018.9
20260906081546 12 1 6.4 14.5 0.00 0.61 0.00 89 1019.6
20260906080057 12 305 6.4 12.9 0.00 0.61 0.00 89 1020.0
20260906074551 12 335 11.3 20.9 0.00 0.61 0.00 89 1020.3
20260906073054 12 349 17.7 25.7 0.00 0.61 0.00 88 1020.1
20260906071547 13 9 22.5 29.0 0.00 0.61 0.00 87 1020.3
20260906070057 13 308 6.4 14.5 0.00 0.61 0.00 87 1020.9
20260906064552 13 270 8.0 14.5 0.00 0.61 0.00 86 1020.8
20260906063050 13 338 8.0 20.9 0.00 0.61 0.00 84 1020.8
20260906061552 13 328 8.0 17.7 0.00 0.61 0.00 84 1020.6
20260906060048 13 30 9.7 16.1 0.00 0.61 0.00 85 1020.6
20260906054558 13 337 12.9 19.3 0.00 0.61 0.61 86 1020.6
20260906053058 13 355 9.7 20.9 0.00 0.61 0.61 86 1020.9
20260906051606 13 295 11.3 14.5 0.00 0.61 0.61 87 1021.5
20260906050047 13 23 11.3 22.5 0.03 0.61 0.61 86 1020.0
20260906044550 13 2 14.5 24.1 0.03 0.61 0.61 86 1020.0
20260906043049 13 337 17.7 22.5 0.03 0.61 0.61 87 1020.1
20260906041551 13 311 11.3 16.1 0.03 0.61 0.61 86 1020.4
20260906040122 14 321 9.7 16.1 0.00 0.58 0.58 85 1020.4
20260906034603 14 355 14.5 24.1 0.00 0.58 0.58 85 1019.3
20260906033103 14 354 17.7 27.4 0.28 0.58 0.58 83 1018.8
20260906031542 14 356 16.1 22.5 0.33 0.58 0.58 83 1018.8
20260906030049 14 357 16.1 20.9 0.33 0.58 0.58 83 1018.8
20260906024600 15 13 17.7 27.4 0.33 0.58 0.58 80 1018.7
20260906023042 17 333 16.1 27.4 0.00 0.25 0.25 65 1019.0
20260906021550 17 342 19.3 25.7 0.00 0.25 0.25 66 1017.8
20260906020050 17 23 19.3 29.0 0.00 0.25 0.25 64 1017.7
20260906014548 17 3 17.7 27.4 0.00 0.25 0.25 64 1017.7
20260906013042 17 10 17.7 25.7 0.00 0.25 0.25 62 1017.8
20260906011550 18 1 19.3 32.2 0.00 0.25 0.25 60 1017.8
20260906010052 18 18 19.3 27.4 0.00 0.25 0.25 57 1017.9
20260906004543 20 27 9.7 24.1 0.00 0.25 0.25 55 1017.7
20260906003053 20 0 0.0 3.2 0.00 0.25 0.25 53 1017.7
20260906001549 21 0 0.0 3.2 0.00 0.25 0.25 50 1017.7
20260906000051 21 0 0.0 0.0 0.00 0.25 0.25 46 1017.9
20260905234547 21 0 0.0 0.0 0.00 0.25 0.25 45 1017.9
20260905233058 21 0 0.0 0.0 0.00 0.25 0.25 44 1017.9